TimeCST,TemperatureF,Dew PointF,Humidity,Sea Level PressureIn,VisibilityMPH,Wind Direction,Wind SpeedMPH,Gust SpeedMPH,PrecipitationIn,Events,Conditions,WindDirDegrees,DateUTC
12:15 AM,45.0,28.4,52,30.24,10.0,East,5.8,-,N/A,,Scattered Clouds,100,2013-03-09 06:15:00
12:35 AM,44.8,29.1,54,30.21,10.0,East,8.1,-,N/A,,Clear,90,2013-03-09 06:35:00
12:55 AM,44.6,28.4,53,30.22,10.0,SE,5.8,-,N/A,,Clear,130,2013-03-09 06:55:00
1:15 AM,44.1,28.4,54,30.22,10.0,East,4.6,-,N/A,,Clear,100,2013-03-09 07:15:00
1:35 AM,43.7,28.8,56,30.21,10.0,East,4.6,-,N/A,,Clear,90,2013-03-09 07:35:00
1:55 AM,43.2,29.7,59,30.20,10.0,East,4.6,-,N/A,,Clear,90,2013-03-09 07:55:00
2:15 AM,43.5,29.5,58,30.19,10.0,East,3.5,-,N/A,,Clear,100,2013-03-09 08:15:00
2:35 AM,43.3,30.0,59,30.18,10.0,East,4.6,-,N/A,,Clear,80,2013-03-09 08:35:00
2:55 AM,43.0,30.4,61,30.19,10.0,ESE,3.5,-,N/A,,Clear,110,2013-03-09 08:55:00
3:15 AM,43.0,30.4,61,30.19,10.0,East,3.5,-,N/A,,Clear,90,2013-03-09 09:15:00
3:35 AM,42.8,30.9,63,30.19,10.0,ESE,4.6,-,N/A,,Clear,110,2013-03-09 09:35:00
3:55 AM,43.0,30.9,62,30.18,10.0,East,4.6,-,N/A,,Clear,90,2013-03-09 09:55:00
4:15 AM,42.8,31.3,64,30.19,10.0,East,4.6,-,N/A,,Clear,100,2013-03-09 10:15:00
4:35 AM,43.2,30.7,62,30.17,10.0,ESE,6.9,-,N/A,,Clear,110,2013-03-09 10:35:00
4:55 AM,43.3,30.7,61,30.17,10.0,East,6.9,-,N/A,,Clear,100,2013-03-09 10:55:00
5:15 AM,43.2,30.9,62,30.17,10.0,East,3.5,-,N/A,,Clear,100,2013-03-09 11:15:00
5:35 AM,42.8,31.3,64,30.17,10.0,East,4.6,-,N/A,,Clear,100,2013-03-09 11:35:00
5:55 AM,42.8,30.9,63,30.17,10.0,East,4.6,-,N/A,,Clear,100,2013-03-09 11:55:00
6:15 AM,42.8,31.1,63,30.17,10.0,ESE,4.6,-,N/A,,Clear,110,2013-03-09 12:15:00
6:35 AM,42.8,31.6,65,30.17,10.0,East,3.5,-,N/A,,Scattered Clouds,90,2013-03-09 12:35:00
6:55 AM,43.2,31.8,64,30.18,10.0,ESE,4.6,-,N/A,,Mostly Cloudy,110,2013-03-09 12:55:00
7:15 AM,43.9,31.6,62,30.18,10.0,ESE,4.6,-,N/A,,Overcast,110,2013-03-09 13:15:00
7:35 AM,44.6,31.3,60,30.18,10.0,ESE,6.9,-,N/A,,Overcast,110,2013-03-09 13:35:00
7:55 AM,45.7,31.5,58,30.18,10.0,ESE,5.8,-,N/A,,Overcast,120,2013-03-09 13:55:00
8:15 AM,47.3,31.1,53,30.18,10.0,SE,5.8,-,N/A,,Overcast,140,2013-03-09 14:15:00
8:35 AM,47.1,31.1,54,30.19,10.0,SE,4.6,-,N/A,,Overcast,130,2013-03-09 14:35:00
8:55 AM,47.1,30.9,53,30.18,10.0,SE,4.6,-,N/A,,Overcast,130,2013-03-09 14:55:00
9:15 AM,47.8,30.9,52,30.17,10.0,ESE,4.6,-,N/A,,Overcast,110,2013-03-09 15:15:00
9:35 AM,48.4,31.1,51,30.16,10.0,ESE,4.6,-,N/A,,Overcast,120,2013-03-09 15:35:00
9:55 AM,49.1,30.9,50,30.16,10.0,SE,6.9,-,N/A,,Overcast,130,2013-03-09 15:55:00
10:15 AM,50.2,31.5,49,30.16,10.0,ESE,5.8,-,N/A,,Mostly Cloudy,120,2013-03-09 16:15:00
10:35 AM,52.3,31.8,46,30.14,10.0,ESE,8.1,-,N/A,,Mostly Cloudy,110,2013-03-09 16:35:00
10:55 AM,53.1,32.0,45,30.13,10.0,ESE,8.1,-,N/A,,Overcast,120,2013-03-09 16:55:00
11:15 AM,54.7,31.8,42,30.12,10.0,ESE,6.9,-,N/A,,Mostly Cloudy,120,2013-03-09 17:15:00
11:35 AM,55.9,32.0,40,30.12,10.0,ESE,8.1,-,N/A,,Scattered Clouds,120,2013-03-09 17:35:00
11:55 AM,58.5,32.2,37,30.11,10.0,SE,5.8,-,N/A,,Scattered Clouds,130,2013-03-09 17:55:00
12:15 PM,60.3,31.8,34,30.10,10.0,SE,8.1,-,N/A,,Clear,140,2013-03-09 18:15:00
12:35 PM,60.6,30.2,32,30.08,10.0,SSE,8.1,-,N/A,,Scattered Clouds,160,2013-03-09 18:35:00
12:55 PM,61.5,30.7,31,30.07,10.0,SSE,6.9,-,N/A,,Clear,150,2013-03-09 18:55:00
1:15 PM,62.8,31.6,31,30.06,10.0,SSE,8.1,-,N/A,,Clear,160,2013-03-09 19:15:00
1:35 PM,64.9,32.2,29,30.04,10.0,South,9.2,-,N/A,,Clear,170,2013-03-09 19:35:00
1:55 PM,65.7,32.9,30,30.03,10.0,South,11.5,-,N/A,,Clear,170,2013-03-09 19:55:00
2:15 PM,66.7,33.3,29,30.02,10.0,SSE,10.4,16.1,N/A,,Clear,150,2013-03-09 20:15:00
2:35 PM,66.7,33.1,29,30.01,10.0,SSE,9.2,17.3,N/A,,Clear,150,2013-03-09 20:35:00
2:55 PM,67.6,32.2,27,30.01,10.0,SSE,10.4,-,N/A,,Clear,160,2013-03-09 20:55:00
3:15 PM,67.3,31.6,27,30.00,10.0,SE,10.4,17.3,N/A,,Clear,140,2013-03-09 21:15:00
3:35 PM,68.0,32.2,26,29.98,10.0,SSE,10.4,-,N/A,,Clear,150,2013-03-09 21:35:00
3:55 PM,67.6,32.2,27,29.98,10.0,SSE,9.2,16.1,N/A,,Clear,160,2013-03-09 21:55:00
4:15 PM,68.0,32.5,27,29.98,10.0,SSE,6.9,-,N/A,,Clear,160,2013-03-09 22:15:00
4:35 PM,66.6,30.9,26,29.99,10.0,South,10.4,19.6,N/A,,Scattered Clouds,190,2013-03-09 22:35:00
4:55 PM,65.5,31.8,28,29.98,10.0,South,8.1,-,N/A,,Overcast,170,2013-03-09 22:55:00
5:15 PM,65.3,32.0,29,29.98,10.0,SSE,6.9,-,N/A,,Overcast,160,2013-03-09 23:15:00
5:35 PM,64.4,31.6,29,29.98,10.0,SSE,6.9,-,N/A,,Mostly Cloudy,160,2013-03-09 23:35:00
5:55 PM,63.7,31.5,30,29.98,10.0,SSE,4.6,-,N/A,,Mostly Cloudy,150,2013-03-09 23:55:00
6:15 PM,62.8,31.5,31,29.97,10.0,SSE,4.6,-,N/A,,Mostly Cloudy,150,2013-03-10 00:15:00
6:35 PM,61.3,30.9,32,29.97,10.0,SSE,4.6,-,N/A,,Scattered Clouds,150,2013-03-10 00:35:00
6:55 PM,59.7,31.1,34,29.98,10.0,SE,3.5,-,N/A,,Scattered Clouds,140,2013-03-10 00:55:00
7:15 PM,58.3,31.5,36,29.98,10.0,Calm,Calm,-,N/A,,Clear,0,2013-03-10 01:15:00
7:35 PM,56.3,31.6,39,29.97,10.0,ESE,4.6,-,N/A,,Clear,120,2013-03-10 01:35:00
7:55 PM,55.2,32.0,41,29.97,10.0,ESE,3.5,-,N/A,,Clear,120,2013-03-10 01:55:00
8:15 PM,54.9,32.0,42,29.96,10.0,ESE,3.5,-,N/A,,Clear,120,2013-03-10 02:15:00
8:35 PM,56.5,32.2,40,29.96,10.0,SE,3.5,-,N/A,,Clear,130,2013-03-10 02:35:00
8:55 PM,57.4,32.2,39,29.96,10.0,ESE,4.6,-,N/A,,Clear,120,2013-03-10 02:55:00
9:15 PM,56.8,32.0,39,29.96,10.0,ESE,3.5,-,N/A,,Clear,120,2013-03-10 03:15:00
9:35 PM,55.9,31.8,40,29.96,10.0,ESE,3.5,-,N/A,,Clear,120,2013-03-10 03:35:00
9:55 PM,54.9,31.8,42,29.96,10.0,ESE,3.5,-,N/A,,Clear,120,2013-03-10 03:55:00
10:15 PM,55.0,32.0,42,29.95,10.0,SE,4.6,-,N/A,,Clear,130,2013-03-10 04:15:00
10:35 PM,55.9,32.5,41,29.95,10.0,SE,4.6,-,N/A,,Clear,130,2013-03-10 04:35:00
10:55 PM,56.1,32.7,41,29.95,10.0,SE,3.5,-,N/A,,Clear,140,2013-03-10 04:55:00
11:15 PM,55.4,33.6,44,29.94,10.0,SE,4.6,-,N/A,,Clear,130,2013-03-10 05:15:00
11:35 PM,55.9,34.0,44,29.94,10.0,SSE,4.6,-,N/A,,Clear,150,2013-03-10 05:35:00
11:55 PM,56.3,34.2,43,29.94,10.0,SE,4.6,-,N/A,,Clear,140,2013-03-10 05:55:00